Location: Moscow
(55.7500°N, 37.5830°E)
Time: 10:03:09
(UTC+03:00)

Vanguard 1 Rocket - Pass Details

Date: 07 December 2021
Orbit: 651 x 4224 km, 34.3° (Epoch: 23 January)

Event Time Altitude Azimuth Distance (km) Brightness Sun altitude
Exits shadow 05:46:15 16° 235° (SW) 4,489 10.5 -23.4°
Maximum altitude 05:56:06 32° 188° (S) 4,465 10.8 -22.0°
Drops below altitude 10° 06:14:29 10° 137° (SE) 7,229 12.7 -19.4°
Sets 06:21:37 0° 129° (SE) 8,440 13.5 -18.5°
